GEFSSGP_con_prob3kmehi_078.txt.gz
EHI
4 2 0 0 0 0 0 0 0 0 0 0 0 0 0 0 0 1 3 3 5 12 15 10 7 4 3 8 16 28 39 43 38 32 27 22 15 9 5 3 1 0 0 0 0 0 0 0 0
2 1 0 0 0 0 0 0 0 0 0 0 0 0 0 1 0 1 2 2 4 8 11 10 7 5 6 12 21 32 42 46 42 36 30 23 16 10 6 4 2 0 0 0 0 0 0 0 0
0 0 0 0 0 0 0 0 0 0 0 0 0 1 2 3 1 0 1 2 3 4 7 11 10 8 9 16 26 37 44 46 42 37 31 24 16 10 6 4 1 0 0 0 0 0 0 0 0
0 0 0 0 0 0 0 0 0 0 0 0 1 4 7 7 4 2 3 3 4 4 6 11 13 11 11 17 28 37 41 41 37 34 28 21 14 8 4 2 0 0 0 0 0 0 0 0 0
0 0 0 0 0 0 0 0 0 0 1 1 4 7 11 11 9 7 5 4 4 3 5 9 13 12 11 15 24 30 31 31 29 26 21 15 9 5 2 0 0 0 0 0 0 0 0 0 0
0 0 0 0 0 0 0 0 0 1 2 2 4 8 12 15 15 11 6 3 2 2 4 8 10 10 9 10 15 19 20 20 18 15 11 7 4 2 1 0 0 0 0 0 0 0 0 0 0
0 0 0 0 0 0 0 0 0 2 2 3 3 5 12 21 21 14 9 6 3 3 4 6 6 5 5 5 7 11 13 12 10 7 4 3 2 1 0 0 0 0 0 0 0 0 0 0 0
0 0 0 0 0 0 0 0 1 3 4 5 6 10 22 34 32 22 16 12 9 6 4 5 5 4 3 3 4 9 11 10 8 5 3 3 2 1 0 1 2 1 0 0 0 0 0 0 0
0 0 0 0 0 0 0 0 1 3 7 14 21 29 42 49 43 30 21 17 15 11 7 6 7 8 7 5 5 7 10 10 8 6 4 3 3 2 2 5 6 3 0 0 0 0 0 0 0
0 0 0 0 0 0 0 0 1 4 13 24 35 47 54 52 42 28 19 18 19 16 11 9 10 11 10 9 8 7 7 8 7 6 6 7 8 6 7 12 13 7 2 1 2 2 1 0 0
0 0 0 0 0 0 0 1 4 11 22 31 39 48 50 45 33 22 18 21 23 19 14 12 12 11 9 9 10 9 9 10 10 10 11 14 16 13 14 20 22 16 8 6 8 7 4 2 1
0 0 0 0 0 0 0 2 10 23 33 37 42 45 43 38 32 25 23 26 25 20 15 13 13 12 10 9 10 10 12 15 18 18 16 17 20 20 21 27 28 22 16 14 17 17 12 7 5
0 0 0 0 0 0 0 3 15 31 39 44 49 48 43 38 36 32 30 28 25 19 15 14 16 18 19 18 15 13 14 19 23 22 16 15 19 23 26 28 26 22 20 20 22 23 18 13 11
0 0 0 0 0 0 1 6 19 33 42 47 53 54 49 45 40 34 32 30 25 21 21 20 21 24 27 27 23 17 16 21 23 19 14 12 15 20 24 23 19 18 19 21 22 22 19 15 14
0 0 0 0 0 0 2 9 20 32 40 46 50 54 54 49 42 38 38 36 31 31 32 29 24 23 26 27 22 15 13 16 17 15 11 9 9 12 16 16 13 14 17 19 20 18 15 12 11
0 0 0 0 1 1 2 9 18 26 34 40 43 45 47 45 43 43 44 43 41 41 41 35 25 20 19 18 15 9 8 10 13 12 9 6 5 6 9 10 10 12 15 16 16 14 11 10 9
0 0 0 0 0 1 2 7 15 23 29 34 35 34 35 40 43 42 42 45 45 42 39 33 24 18 14 11 9 7 7 9 11 10 8 6 5 5 5 6 6 8 11 13 13 13 11 9 8
0 0 0 0 0 0 1 4 12 21 25 27 28 30 32 36 37 34 33 35 36 32 29 25 22 17 13 10 10 11 11 10 9 7 5 4 3 2 2 2 2 3 4 7 9 10 9 7 5
0 0 0 0 0 0 0 3 9 16 19 19 22 26 29 29 26 23 20 20 21 20 20 19 18 15 12 12 13 14 14 11 7 4 2 1 1 0 1 1 1 2 2 3 4 4 4 4 3
0 0 0 0 0 0 1 2 7 13 14 13 14 19 20 17 14 12 10 9 10 11 12 12 13 11 10 10 11 13 13 9 5 2 1 0 0 0 1 2 2 2 2 2 1 1 1 1 1
0 0 0 0 0 0 0 1 4 8 10 9 8 10 10 8 6 6 4 3 4 5 6 8 9 8 8 8 8 8 8 6 3 2 2 1 0 0 1 2 2 1 2 2 1 0 0 0 0
0 0 0 0 0 0 0 0 1 3 4 3 3 4 4 4 3 2 2 1 2 4 6 9 10 9 10 10 9 8 5 3 3 3 3 2 1 1 1 2 2 1 1 1 1 0 0 0 0
0 0 0 0 0 0 0 0 0 0 0 0 1 2 2 1 1 0 0 0 1 4 7 11 13 13 13 13 13 11 6 2 3 3 2 2 2 1 1 2 2 1 1 0 0 0 0 1 1
0 0 0 0 0 0 0 0 0 0 0 0 0 1 1 0 0 0 0 0 1 3 5 9 14 15 12 11 12 11 6 2 2 1 1 1 1 1 0 1 1 1 0 0 0 0 0 0 0
0 0 0 0 0 0 0 0 0 0 0 0 0 0 0 0 0 0 1 1 1 1 2 5 10 11 9 6 6 6 4 2 2 1 0 0 0 0 0 0 0 0 0 0 0 0 0 0 0
0 0 0 0 0 0 0 0 0 0 0 0 0 0 0 0 0 1 2 2 1 0 1 3 4 6 5 3 3 3 3 2 1 1 0 0 0 0 0 0 0 0 0 0 0 0 0 0 0
0 0 0 0 0 0 0 0 0 0 0 0 0 0 0 0 1 2 2 2 2 1 2 3 3 3 2 2 2 2 2 2 1 0 0 0 0 0 0 0 0 0 0 0 0 0 0 0 0
0 0 0 0 0 0 0 0 0 0 0 0 0 0 0 0 1 1 2 2 3 3 3 3 3 2 1 1 1 1 1 1 1 0 0 0 0 0 0 0 0 0 0 0 0 0 0 0 0
0 0 0 0 0 0 0 0 0 0 0 0 0 0 0 0 0 0 1 2 3 2 2 1 1 1 0 0 0 0 0 0 0 0 0 0 0 0 0 0 0 0 0 0 0 0 0 0 0
0 0 0 0 0 0 0 0 0 0 0 0 0 0 0 0 0 0 1 1 1 1 0 0 0 1 0 0 0 0 0 0 0 0 0 0 0 0 0 0 0 0 0 0 0 0 0 0 0

GEFSSGP_con_prob3kmehi_084.txt.gz
EHI
4 7 10 7 4 3 2 1 0 0 0 1 2 4 10 14 14 15 24 53 73 65 52 52 47 26 9 4 3 2 2 2 2 1 1 1 0 0 0 0 0 0 0 0 0 0 0 0 0
2 5 7 5 3 2 1 0 0 0 0 1 4 6 7 7 9 14 29 53 64 54 44 45 43 27 10 5 4 3 4 4 4 4 3 1 0 0 0 0 0 0 0 0 0 0 0 0 0
1 2 3 2 2 1 0 0 0 0 0 3 8 10 7 6 8 15 31 50 56 47 42 43 40 28 12 4 4 5 5 7 7 6 4 3 2 2 1 0 0 0 0 0 0 0 0 0 0
1 1 0 0 0 0 0 0 0 0 1 6 16 19 14 10 11 15 26 43 50 46 41 40 37 27 13 5 4 6 7 7 8 8 7 5 4 4 3 1 0 0 0 1 1 0 0 0 0
1 0 0 0 0 0 0 0 0 0 2 10 25 31 23 14 12 11 18 30 40 44 38 33 33 27 16 10 8 8 8 9 11 12 10 8 7 6 4 2 0 0 1 1 1 0 0 0 0
1 0 0 0 0 0 0 0 0 1 3 11 27 35 27 16 10 7 9 18 34 44 37 27 26 24 19 15 13 13 12 12 13 13 11 9 7 5 4 2 1 0 1 1 1 0 0 0 0
0 0 0 0 0 0 0 0 1 3 6 12 25 33 28 18 11 7 6 16 37 48 35 20 16 16 15 14 14 16 14 12 10 9 7 6 5 5 4 2 1 0 0 0 0 0 0 0 0
0 0 0 0 0 0 0 0 2 5 9 16 26 34 30 21 12 7 8 19 40 46 30 15 11 10 9 9 12 13 11 9 7 5 3 2 3 4 5 4 2 1 1 0 1 1 0 0 0
0 0 0 0 0 0 0 1 3 7 14 24 34 38 33 21 12 9 13 24 40 45 32 22 19 14 11 13 15 10 7 7 5 4 3 3 4 5 8 10 11 8 4 2 2 3 1 0 0
0 0 0 0 0 0 0 1 4 9 17 31 42 41 32 23 15 15 22 35 47 48 41 40 38 28 23 28 29 19 16 17 11 8 11 10 8 10 15 23 25 18 10 6 5 4 3 1 0
0 0 0 0 0 0 0 3 6 12 20 33 42 41 34 28 24 26 35 49 56 52 48 56 58 48 42 45 41 34 36 37 26 23 29 25 22 23 28 36 36 27 18 13 12 9 5 3 3
0 0 0 0 0 0 2 7 13 17 23 31 35 38 37 33 31 35 46 59 63 57 54 62 68 63 59 58 51 44 47 46 41 42 45 42 40 37 39 44 43 36 29 26 25 20 13 10 11
0 0 0 0 0 1 3 10 18 22 26 27 29 34 37 37 39 45 57 68 68 60 58 64 70 70 68 65 59 51 47 46 46 49 49 47 45 42 42 45 45 42 38 36 34 30 23 20 21
0 0 1 0 0 1 5 11 19 25 28 28 30 36 43 48 52 58 65 72 68 59 58 63 67 69 67 61 56 50 44 42 44 44 43 41 38 36 38 40 37 35 35 36 34 31 25 23 23
0 0 0 0 0 1 5 10 17 25 32 34 38 46 55 61 64 63 65 67 65 63 64 62 61 63 60 51 43 37 36 36 36 36 35 33 29 27 28 30 28 26 27 29 28 25 21 17 17
0 0 0 0 0 0 4 10 15 22 31 37 44 53 62 66 64 61 60 62 66 71 72 65 58 59 55 45 35 29 28 29 27 25 27 26 21 17 18 20 21 20 21 22 21 19 15 12 11
0 0 0 0 0 0 3 8 14 18 26 35 45 54 60 61 60 59 57 59 65 70 70 64 59 57 51 43 35 28 24 22 20 19 21 21 16 12 12 15 16 14 14 16 17 17 14 10 7
0 0 0 0 0 0 2 6 12 16 23 32 42 50 54 54 54 54 51 51 54 57 57 56 56 51 43 38 35 28 22 18 16 17 19 18 12 9 8 9 10 8 8 10 14 16 14 9 5
0 0 0 0 0 1 2 6 11 16 23 30 37 42 45 46 47 45 42 40 41 43 45 48 48 42 36 33 30 25 20 16 13 15 17 13 8 6 5 5 5 5 5 6 9 10 8 5 3
0 0 0 0 1 1 3 7 11 16 20 24 29 32 35 37 37 36 33 32 33 35 38 41 42 38 30 24 20 18 15 12 11 15 16 12 8 6 5 5 4 3 3 4 5 5 4 2 1
0 0 0 0 1 1 2 6 10 14 15 16 18 21 24 27 26 25 24 25 26 27 31 38 42 35 24 15 11 10 11 10 11 17 20 17 12 9 6 5 4 3 3 3 3 3 2 1 0
0 0 0 0 0 0 0 3 8 11 11 11 11 13 17 19 17 16 17 18 18 19 27 41 46 37 24 15 11 9 9 9 11 19 23 19 14 9 6 4 4 4 3 3 2 1 1 1 0
0 0 0 0 0 0 0 1 4 7 7 7 8 9 12 12 11 12 14 15 14 15 24 40 47 42 32 23 17 14 10 8 9 14 16 13 9 7 4 3 3 4 3 2 1 0 0 1 1
0 0 0 0 0 0 0 0 1 3 4 4 5 6 7 7 7 9 12 13 13 15 22 36 46 44 35 27 20 15 11 8 7 7 7 5 3 2 2 1 2 3 3 1 1 0 0 1 1
1 1 0 0 0 0 0 0 0 1 2 3 4 4 3 4 5 7 11 14 17 20 25 35 45 43 33 24 16 12 9 6 4 3 2 1 1 1 1 1 1 1 1 1 0 0 0 0 1
0 0 0 0 0 0 0 0 0 0 1 2 3 3 2 2 4 6 10 17 23 28 31 36 42 38 26 15 10 8 7 4 3 2 1 1 2 1 0 0 0 0 0 0 0 0 0 0 0
0 0 0 0 0 0 0 0 0 0 0 1 1 1 0 0 1 3 8 16 24 31 33 35 35 28 16 8 6 6 6 4 3 2 1 1 2 1 0 0 0 0 0 0 0 0 0 0 0
0 0 0 0 0 0 0 0 0 0 0 0 0 0 0 0 0 1 5 11 18 24 26 27 25 18 9 5 3 3 3 3 2 1 0 1 1 1 0 0 0 0 0 0 0 0 0 0 0
0 0 0 0 0 0 0 0 0 0 0 0 0 0 0 0 0 1 5 9 12 13 13 15 14 10 5 3 2 1 1 1 1 0 0 0 0 0 0 0 0 0 0 0 0 0 0 0 0
0 0 0 0 0 0 0 0 0 0 0 0 0 0 0 0 0 1 5 9 9 7 7 7 7 6 4 3 2 1 0 0 0 0 0 0 0 0 0 0 0 0 0 0 0 0 0 0 0

GEFSSGP_con_prob3kmehi_090.txt.gz
EHI
6 2 0 0 0 0 0 0 0 1 1 4 10 14 14 11 7 6 8 26 54 59 44 42 51 50 38 25 15 8 4 2 0 0 0 0 0 0 0 0 0 0 0 0 0 0 0 0 0
2 1 0 0 0 0 0 0 1 3 5 6 9 12 14 14 13 12 15 36 61 62 47 44 54 54 42 30 17 9 5 3 1 0 0 0 0 0 0 0 0 0 0 0 0 0 0 0 0
0 0 0 0 0 0 1 2 4 7 9 8 9 10 11 13 16 18 28 53 70 65 52 51 60 60 49 37 24 12 5 3 2 0 0 0 0 0 0 0 0 0 0 0 0 0 0 0 0
0 0 0 0 0 0 2 4 8 12 13 12 15 17 15 16 22 30 44 64 73 66 56 58 65 63 52 42 30 17 8 5 3 1 1 1 0 0 0 0 0 0 0 0 0 0 0 0 0
0 0 0 0 0 0 2 6 11 14 15 17 23 27 25 25 35 44 52 63 68 63 56 57 65 65 54 44 33 21 12 7 5 3 3 3 1 1 0 0 0 0 0 0 0 0 0 0 0
0 0 0 0 0 0 2 5 10 12 14 20 26 29 28 32 42 45 47 53 58 57 51 51 56 58 53 45 34 23 15 9 7 5 5 4 3 1 0 0 0 0 1 0 0 0 0 0 0
0 0 0 0 0 0 1 4 6 9 14 18 22 25 25 31 37 39 41 44 48 48 45 42 41 41 40 36 30 24 18 13 9 7 5 4 2 1 0 0 0 0 0 0 0 0 0 0 0
0 0 0 0 0 0 2 4 5 7 13 16 17 20 23 28 34 39 40 40 40 38 36 32 27 23 22 20 19 19 17 13 8 6 5 2 1 0 0 1 1 1 0 0 0 0 0 0 0
0 0 0 0 0 1 2 4 4 6 11 14 16 20 25 30 37 43 42 36 30 26 24 21 17 13 11 9 9 11 10 8 5 4 3 2 0 0 0 1 2 1 1 1 2 2 1 1 0
0 0 0 0 0 1 2 2 2 4 8 14 19 25 31 36 41 45 40 29 19 15 13 12 11 10 8 6 4 4 4 3 1 1 1 1 0 0 0 1 2 1 1 2 3 2 2 1 0
0 0 1 1 1 1 1 1 2 4 8 15 22 28 33 37 42 43 37 26 18 15 12 10 10 8 6 4 2 1 1 0 0 0 0 0 0 0 0 0 0 0 0 1 2 2 2 2 1
0 0 1 2 3 2 2 2 4 7 11 16 21 26 30 35 40 42 38 29 26 25 21 15 14 12 9 6 4 2 1 1 1 2 1 0 0 0 0 0 0 0 0 0 1 2 2 2 1
0 0 1 3 4 4 3 3 5 8 11 14 18 22 25 30 37 41 39 34 34 35 31 28 28 27 21 13 9 5 4 3 3 4 4 2 1 1 2 1 0 0 0 0 1 1 2 1 0
0 0 1 2 3 3 4 5 5 7 10 13 15 19 22 26 33 38 40 41 42 43 41 41 42 40 31 20 13 9 6 4 5 7 8 5 3 2 2 1 0 0 0 0 0 0 0 0 0
0 0 0 1 1 2 3 6 6 8 12 14 16 19 22 25 29 33 40 45 47 47 45 43 41 36 29 21 15 10 7 5 6 8 9 6 3 2 1 1 0 0 0 0 0 0 0 0 0
0 0 0 0 0 0 1 4 7 11 13 14 15 19 20 20 21 26 34 41 44 43 40 35 30 24 20 18 14 10 8 6 5 5 5 3 1 1 1 0 0 0 0 0 0 0 0 0 0
0 0 0 0 0 0 1 2 6 11 12 11 12 15 16 15 15 19 27 34 36 35 31 27 21 16 13 13 11 8 6 4 3 2 1 0 0 0 0 0 0 0 0 0 0 0 0 0 0
0 0 0 0 0 1 2 3 6 9 10 9 8 10 13 12 13 17 23 29 30 27 25 21 16 12 9 8 7 4 2 1 1 1 0 0 0 0 0 0 0 0 0 0 0 0 0 0 0
0 0 0 0 1 2 2 3 5 8 8 6 6 8 9 10 13 17 20 24 24 23 20 17 13 7 4 3 2 1 0 0 0 0 0 0 0 0 0 0 0 0 0 0 0 0 0 0 0
0 0 0 0 1 2 2 2 4 5 4 4 5 7 8 10 13 15 17 18 19 17 14 10 6 3 1 0 0 0 0 0 0 0 0 0 0 0 0 0 0 0 0 0 0 0 0 0 0
0 0 0 0 1 1 1 1 2 3 3 3 4 6 9 10 10 12 13 13 12 10 7 3 1 0 0 0 0 0 0 0 0 0 0 0 0 0 0 0 0 0 0 0 0 0 0 0 0
0 0 0 0 0 0 0 0 1 3 5 5 4 5 8 8 8 8 9 9 7 5 3 1 1 1 1 0 1 1 0 0 0 0 0 0 0 0 0 0 0 0 0 0 0 0 0 0 0
0 0 0 0 0 0 0 0 1 3 5 4 4 5 7 7 6 5 6 6 5 3 2 2 2 2 2 2 2 2 1 0 0 0 0 0 0 0 0 0 0 0 0 0 0 0 0 0 0
0 0 0 0 0 0 0 0 1 2 3 2 3 5 8 8 5 4 4 4 4 3 3 4 4 4 3 3 3 2 1 0 0 0 0 0 0 0 0 0 0 0 0 0 0 0 0 0 0
0 0 0 0 0 0 0 0 0 1 1 1 2 4 7 8 5 2 3 3 4 4 6 8 8 5 4 4 3 2 1 0 0 0 0 0 0 0 0 0 0 0 0 0 0 0 0 0 0
0 0 0 0 0 0 0 0 0 0 0 0 1 2 6 8 4 2 3 4 4 6 10 13 12 8 6 4 3 1 0 0 0 0 0 0 0 0 0 0 0 0 0 0 0 0 0 0 0
0 0 0 0 0 0 0 0 0 0 0 0 0 1 4 6 3 1 3 5 6 6 10 14 13 10 6 3 1 0 0 0 0 0 0 0 0 0 0 0 0 0 0 0 0 0 0 0 0
0 0 0 0 0 0 0 0 0 0 0 0 0 0 2 3 2 1 3 5 5 6 9 12 12 9 5 1 0 0 0 0 0 0 0 0 0 0 0 0 0 0 0 0 0 0 0 0 0
0 0 0 0 0 0 0 0 0 0 0 0 0 0 0 0 1 2 3 4 5 8 10 10 8 6 3 1 0 0 0 0 0 0 0 0 0 0 0 0 0 0 0 0 0 0 0 0 0
0 0 0 0 0 0 0 0 0 0 0 0 0 0 0 0 0 2 3 3 6 10 11 9 7 5 3 1 0 0 0 0 0 0 0 0 0 0 0 0 0 0 0 0 0 0 0 0 0

GEFSSGP_con_prob3kmehi_096.txt.gz
EHI
0 0 0 0 0 0 0 0 0 0 0 1 1 2 3 3 2 1 2 8 21 24 17 17 29 40 45 47 45 39 31 26 22 17 11 6 4 2 1 0 0 0 0 0 0 0 0 0 0
0 0 0 0 0 0 0 0 0 0 0 1 2 2 3 3 3 3 4 11 25 29 20 18 29 40 47 47 44 36 28 22 19 14 10 5 3 2 1 0 0 0 0 0 0 0 0 0 0
0 0 0 0 0 0 0 0 0 0 0 1 3 3 3 4 4 5 7 15 29 33 23 21 31 42 46 45 39 32 24 18 14 9 7 4 2 1 1 0 0 0 0 0 0 0 0 0 0
0 0 0 0 0 0 0 0 0 0 0 2 5 7 6 5 6 10 15 23 33 34 25 25 35 42 42 38 33 28 22 15 9 6 5 4 3 2 2 1 0 0 0 0 0 0 0 0 0
0 0 0 0 0 0 0 0 0 1 2 5 10 12 11 9 12 18 22 27 36 38 29 28 37 40 37 33 29 25 19 13 8 4 4 5 4 3 3 1 0 0 0 0 0 0 0 0 0
0 0 0 0 0 0 0 0 1 3 6 9 14 17 17 16 18 23 24 26 36 42 34 29 33 35 34 32 28 22 16 11 7 4 4 5 5 4 3 2 1 0 0 0 0 0 0 0 0
0 0 0 0 0 0 0 0 1 4 7 9 14 18 19 20 22 25 25 26 35 41 37 29 27 27 28 27 26 21 14 9 7 4 3 4 4 3 2 2 1 0 0 0 0 0 0 0 0
0 0 0 0 0 0 0 0 1 3 6 8 12 17 21 24 27 30 31 28 31 35 33 28 23 21 20 19 19 18 13 10 7 4 3 3 2 1 1 1 0 0 0 0 0 0 0 0 0
0 0 0 0 0 0 0 0 0 3 7 10 14 20 26 33 37 39 36 28 24 24 24 24 22 19 16 14 12 12 12 9 6 3 3 3 1 0 0 0 0 0 0 0 1 1 1 0 0
0 0 0 0 0 0 0 0 1 4 8 12 19 28 35 39 41 40 35 26 19 16 16 18 18 17 16 14 11 10 9 6 4 2 1 1 0 0 0 0 0 0 0 0 1 2 2 1 0
0 0 0 0 0 0 0 0 2 4 7 11 22 34 40 40 37 34 30 22 16 15 14 14 14 14 14 13 12 10 8 5 3 1 0 0 0 0 0 0 0 0 0 0 1 1 1 1 0
0 0 1 1 0 0 0 1 2 4 6 11 23 37 42 40 35 30 25 19 15 16 16 14 13 12 11 10 10 9 7 5 2 1 0 0 0 0 0 0 0 0 0 0 0 0 0 0 0
0 1 2 2 1 1 2 3 4 4 7 14 25 35 38 36 32 28 22 18 16 16 16 15 12 10 9 8 8 6 4 2 1 0 0 0 0 0 0 0 0 0 0 0 0 0 0 0 0
0 1 2 2 2 2 3 3 4 4 7 15 23 26 26 26 25 24 20 17 15 14 13 12 10 8 7 6 4 3 2 0 0 0 0 0 0 0 0 0 0 0 0 0 0 0 0 0 0
0 0 1 1 1 2 2 2 2 3 6 13 17 16 15 17 18 18 18 16 13 12 12 10 7 5 4 3 3 2 2 0 0 0 0 0 0 0 0 0 0 0 0 0 0 0 0 0 0
0 0 0 0 0 0 0 0 2 4 7 10 11 10 10 11 11 14 17 17 14 12 12 10 8 5 3 2 2 2 1 0 0 0 0 0 0 0 0 0 0 0 0 0 0 0 0 0 0
0 0 0 0 0 0 0 0 2 5 7 7 7 7 8 8 8 10 14 16 14 12 11 10 9 6 3 1 1 1 0 0 0 0 0 0 0 0 0 0 0 0 0 0 0 0 0 0 0
0 0 0 0 0 0 0 1 3 5 6 5 4 4 5 5 7 8 11 12 11 9 9 8 7 5 2 0 0 0 0 0 0 0 0 0 0 0 0 0 0 0 0 0 0 0 0 0 0
0 0 0 0 0 0 1 2 4 5 5 4 3 2 2 3 5 6 7 7 7 7 7 6 4 2 1 0 0 0 0 0 0 0 0 0 0 0 0 0 0 0 0 0 0 0 0 0 0
0 0 0 0 0 0 1 2 3 4 4 4 3 3 2 2 2 3 4 5 5 6 5 4 3 2 1 0 0 0 0 0 0 0 0 0 0 0 0 0 0 0 0 0 0 0 0 0 0
0 0 0 0 0 0 0 1 1 2 2 3 3 3 3 2 1 2 2 2 3 4 4 2 2 1 1 0 1 1 0 0 0 0 0 0 0 0 0 0 0 0 0 0 0 0 0 0 0
0 0 0 0 0 0 0 0 0 0 1 2 3 3 3 1 1 2 3 2 2 3 3 2 1 0 0 0 1 1 0 0 0 0 0 0 0 0 0 0 0 0 0 0 0 0 0 0 0
0 0 0 0 0 0 0 0 0 0 0 1 2 3 2 1 1 2 2 2 2 3 3 2 1 0 0 0 0 0 0 0 0 0 0 0 0 0 0 0 0 0 0 0 0 0 0 0 0
0 0 0 0 0 0 0 0 0 0 0 0 1 1 2 2 1 1 1 1 1 2 3 2 1 0 0 0 0 0 0 0 0 0 0 0 0 0 0 0 0 0 0 0 0 0 0 0 0
0 0 0 0 0 0 0 0 0 0 0 0 0 0 1 2 1 0 0 0 1 2 3 2 1 0 0 0 0 0 0 0 0 0 0 0 0 0 0 0 0 0 0 0 0 0 0 0 0
0 0 0 0 0 0 0 0 0 0 0 0 0 0 1 1 1 0 0 0 1 3 2 1 0 0 0 0 0 0 0 0 0 0 0 0 0 0 0 0 0 0 0 0 0 0 0 0 0
0 0 0 0 0 0 0 0 0 0 0 0 0 1 1 1 0 0 0 1 2 3 2 0 0 0 0 0 0 0 0 0 0 0 0 0 0 0 0 0 0 0 0 0 0 0 0 0 0
0 0 0 0 0 0 0 0 0 0 0 0 0 1 2 2 2 1 0 1 2 2 1 0 0 0 0 0 0 0 0 0 0 0 0 0 0 0 0 0 0 0 0 0 0 0 0 0 0
0 0 0 0 0 0 0 0 0 0 0 0 0 0 1 3 3 2 0 1 1 1 0 0 0 0 0 0 0 0 0 0 0 0 0 0 0 0 0 0 0 0 0 0 0 0 0 0 0
0 0 0 0 0 0 0 0 0 0 0 0 0 0 1 3 3 2 0 0 1 0 0 0 0 0 1 1 1 0 0 0 0 0 0 0 0 0 0 0 0 0 0 0 0 0 0 0 0

GEFSSGP_con_prob3kmehi_102.txt.gz
EHI
3 3 2 2 2 2 1 0 0 1 2 3 2 1 1 1 2 4 6 7 9 11 9 7 8 10 12 16 22 27 26 19 13 10 10 10 8 5 3 3 3 3 3 3 3 3 3 3 3
3 2 1 2 2 1 0 0 0 1 2 3 3 3 3 3 3 4 6 9 10 11 10 8 8 8 10 14 20 24 23 18 13 10 10 10 8 5 3 3 3 3 3 3 3 3 3 3 3
2 1 0 1 1 0 1 1 1 1 2 3 3 4 6 6 5 5 9 12 11 10 10 10 9 8 7 12 18 20 18 16 13 11 10 9 7 4 3 3 3 3 3 3 3 3 3 3 3
1 0 0 0 0 0 1 2 2 2 3 3 4 6 9 11 9 8 13 15 13 9 9 11 11 9 8 11 16 17 15 13 12 11 9 7 5 4 3 3 3 3 3 3 3 3 3 3 3
0 0 0 0 0 0 1 2 3 3 4 4 5 8 14 16 14 13 16 17 12 9 9 12 12 10 9 11 12 13 12 11 10 9 8 6 4 3 3 3 3 3 3 3 3 3 3 3 3
0 0 0 0 0 0 0 2 3 4 5 5 6 12 20 23 20 16 15 15 11 8 10 12 11 8 7 8 9 9 9 8 7 6 7 7 4 3 3 3 3 3 3 3 3 3 3 3 3
0 0 0 0 0 0 0 1 3 4 5 6 7 13 24 32 29 21 16 12 9 7 9 11 9 5 5 6 7 7 7 6 6 5 6 7 5 3 3 3 3 4 4 3 3 3 3 3 3
0 0 0 0 0 0 0 1 2 3 5 7 8 13 27 39 40 30 20 14 9 7 7 7 5 4 3 4 5 4 5 7 7 5 4 5 4 3 3 3 4 4 4 4 3 3 3 3 3
0 0 0 0 0 0 0 0 1 2 4 7 11 18 30 44 48 39 27 20 14 9 5 4 3 3 3 3 4 3 5 7 7 4 3 4 3 3 3 3 3 4 4 3 3 4 3 3 3
0 0 0 0 0 0 0 0 0 1 2 6 16 26 36 46 49 42 32 24 19 13 6 3 3 3 3 3 4 4 5 6 5 4 4 4 3 3 4 4 3 3 3 4 4 4 3 3 3
0 0 0 0 0 0 0 0 0 1 2 7 19 33 41 43 42 37 29 22 19 15 9 4 3 3 4 4 5 5 6 6 5 5 6 5 4 5 6 6 4 3 3 4 4 4 4 4 4
0 0 0 0 0 0 0 0 0 2 5 9 17 31 38 36 34 31 26 20 18 15 11 7 6 6 7 6 6 7 7 7 7 7 6 5 5 6 7 7 4 2 3 4 4 4 5 5 5
0 0 0 0 0 0 0 0 1 2 4 8 15 24 28 28 28 27 24 22 19 16 12 11 12 12 12 11 10 8 8 7 7 8 6 4 5 6 8 8 6 5 4 4 3 3 4 5 4
0 0 0 1 0 0 0 0 1 3 5 7 12 18 22 23 23 24 23 21 20 17 14 14 17 18 17 15 13 10 8 8 7 8 7 6 5 7 8 8 8 7 7 5 3 1 2 2 2
0 0 0 0 0 0 0 1 3 6 7 8 10 15 19 20 21 23 22 20 19 18 17 18 19 19 18 16 12 9 8 8 7 7 8 8 6 7 8 8 7 6 6 4 2 0 1 1 0
0 0 0 0 0 0 0 2 5 8 9 9 11 16 19 18 19 21 22 20 19 19 20 20 19 18 17 14 11 9 9 9 9 8 8 8 6 5 6 7 5 3 2 1 0 0 0 0 0
0 0 0 0 0 0 0 2 5 7 7 8 11 15 16 14 14 17 20 21 21 20 20 20 19 17 17 15 11 10 10 10 10 9 8 6 5 4 4 4 4 2 0 0 0 0 0 0 0
0 0 0 0 0 0 0 1 3 4 4 5 6 8 9 9 9 14 18 20 21 20 20 20 19 18 17 15 13 13 12 9 9 8 7 6 4 3 2 2 2 1 0 0 0 0 0 0 0
0 0 0 0 0 0 0 1 2 3 2 2 3 4 4 6 8 12 15 17 17 18 20 20 18 17 17 15 15 17 15 10 9 8 7 6 5 3 2 1 1 1 0 0 0 0 0 0 0
0 0 0 0 1 0 1 2 3 3 2 2 3 4 4 5 7 11 12 12 13 16 18 18 16 15 16 16 17 17 15 12 10 9 8 7 6 4 2 1 1 0 0 0 0 0 0 0 0
0 0 0 0 0 0 1 3 5 4 1 2 4 5 4 5 6 8 10 10 11 15 16 15 14 16 16 16 14 13 11 10 10 9 8 7 6 4 2 1 1 0 0 0 0 0 0 0 0
0 0 0 0 0 0 0 2 5 5 2 2 4 4 4 4 4 6 9 11 12 12 12 14 16 17 16 14 12 9 6 6 7 8 7 7 6 4 2 2 1 0 0 0 0 0 0 0 0
0 0 0 0 0 0 0 0 2 4 3 1 2 3 4 4 5 7 10 11 10 8 9 13 17 19 17 14 12 7 4 4 6 6 6 5 4 3 1 1 0 0 0 0 0 0 0 0 0
0 0 0 0 0 0 0 0 1 2 2 1 0 1 3 5 6 8 9 10 9 7 8 11 17 21 20 16 12 7 4 4 4 4 4 2 1 1 0 0 0 0 0 0 0 0 0 0 0
0 0 0 0 0 0 0 0 0 0 1 2 1 1 2 4 6 7 10 11 10 8 7 11 18 22 21 16 10 6 4 3 2 2 2 1 0 0 0 0 0 0 0 0 0 0 0 0 0
0 0 0 0 0 0 0 0 0 0 1 2 2 1 1 2 3 6 10 12 11 9 8 11 17 19 17 14 10 7 4 2 2 2 1 1 1 0 0 0 0 0 0 0 0 0 0 0 0
0 0 0 0 0 0 0 0 0 0 1 3 4 2 0 0 2 5 8 9 9 9 10 12 15 16 14 12 10 7 4 3 2 3 2 1 0 0 0 0 0 0 0 0 0 0 0 0 0
0 0 0 0 0 0 0 0 0 1 2 4 4 3 1 1 2 4 5 6 7 10 12 13 15 16 14 12 10 8 7 6 4 3 3 1 1 0 0 0 0 0 0 0 0 0 0 0 0
0 0 0 0 0 0 0 0 0 1 2 3 4 3 1 1 2 3 3 4 6 10 14 15 16 17 15 13 11 11 11 10 7 5 3 3 2 1 1 0 0 0 0 0 0 0 0 0 0
0 0 0 0 0 0 0 0 0 1 2 3 3 2 1 0 1 2 2 4 6 11 14 17 17 17 15 14 13 14 14 12 10 6 4 3 3 2 2 1 0 0 0 0 0 0 0 0 0